Flight Track Log - Related Links

Times and Time Zones

All times are in EDT time to prevent confusion due to time zone crossing. See the N629SA flight status page for this flight to view local times or setup timezone preferences in your user account.

Time Position Orientation Groundspeed Altitude Reporting Facility
EDT Latitude Longitude Course Direction KTS MPH feet Rate Location/Type
Wed 10:35:06 PM 30.5008 -81.6894 220° Southwest 88 101 300  Level Jacksonville Center
Wed 10:36:19 PM 30.4761 -81.7139 220° Southwest 113 130 1,600 1,128 Climbing Jacksonville Center
Wed 10:37:19 PM 30.4428 -81.7167 184° South 122 140 2,800 744 Climbing Jacksonville Center
Wed 10:38:20 PM 30.4133 -81.6906 143° Southeast 148 170 3,100 155 Climbing Jacksonville Center
Wed 10:39:15 PM 30.3858 -81.6572 134° Southeast 167 192 3,100  Level Jacksonville Center
Wed 10:40:22 PM 30.3500 -81.6167 136° Southeast 169 194 3,100 -47 Level Jacksonville Center
Wed 10:41:22 PM 30.3161 -81.5786 136° Southeast 167 192 3,000  Descending Jacksonville Center
Wed 10:42:23 PM 30.2803 -81.5408 138° Southeast 167 192 3,100 49 Climbing Jacksonville Center
Wed 10:43:24 PM 30.2444 -81.5028 137° Southeast 168 193 3,100  Level Jacksonville Center
Wed 10:44:31 PM 30.2106 -81.4647 136° Southeast 166 191 3,100  Level Jacksonville Center
Wed 10:45:38 PM 30.1725 -81.4222 136° Southeast 165 190 3,100  Level Jacksonville Center
Wed 10:46:39 PM 30.1386 -81.3842 136° Southeast 165 190 3,100  Level Jacksonville Center
Wed 10:47:33 PM 30.1069 -81.3486 136° Southeast 165 190 3,100  Level Jacksonville Center
Wed 10:48:34 PM 30.0689 -81.3206 147° Southeast 167 192 3,100  Level Jacksonville Center
Wed 10:49:35 PM 30.0289 -81.2925 149° Southeast 165 190 3,100  Level Jacksonville Center
Wed 10:50:36 PM 29.9908 -81.2619 145° Southeast 166 191 3,100 -49 Level Jacksonville Center
Wed 10:51:37 PM 29.9572 -81.2289 140° Southeast 167 192 3,000 -52 Descending Jacksonville Center
Wed 10:52:31 PM 29.9275 -81.1933 134° Southeast 165 190 3,000  Level Jacksonville Center
Wed 10:53:38 PM 29.8833 -81.1703 156° South 166 191 3,000 -234 Level Jacksonville Center
Wed 10:54:39 PM 29.8669 -81.2064 242° Southwest 142 163 2,500 -414 Descending Jacksonville Center
Wed 10:55:34 PM 29.8861 -81.2325 310° West 117 135 2,200 -545 Descending Jacksonville Center
Wed 10:56:40 PM 29.9053 -81.2633 306° West 104 120 1,400 -520 Descending Jacksonville Center
Wed 10:57:41 PM 29.9181 -81.2797 312° West 72 83 1,100 -344 Descending Jacksonville Center
Wed 10:58:42 PM 29.9308 -81.3036 302° West 65 75 700 -74 Descending Jacksonville Center
Wed 11:00:00 PM 29.9434 -81.2468 76° East  Level FlightAware
Wed 11:01:44 PM 29.9669 -81.3558 163° South 69 79 800  Level Jacksonville Center
Wed 11:02:32 PM 29.9653 -81.3844 266° West 152 175 1,600 907 Climbing Jacksonville Center
Wed 11:03:10 PM 29.9508 -81.3992 221° Southwest 100 115 2,100 645 Climbing Jacksonville Center
Wed 11:04:05 PM 29.9408 -81.4353 252° West 136 157 2,600 776 Climbing Jacksonville Center
Wed 11:05:06 PM 29.9181 -81.4572 220° Southwest 145 167 3,600 744 Climbing Jacksonville Center
Wed 11:06:06 PM 29.8825 -81.4408 158° South 151 174 4,100 198 Climbing Jacksonville Center
Wed 11:07:00 PM 29.7196 -81.2426 163° South  Level FlightAware
Wed 11:07:07 PM 29.8383 -81.4128 151° Southeast 165 190 4,000  Level Jacksonville Center
Wed 11:08:07 PM 29.7983 -81.3919 156° South 163 188 4,000  Level Jacksonville Center
Wed 11:09:08 PM 29.7583 -81.3686 153° Southeast 161 185 4,000  Level Jacksonville Center
Wed 11:10:09 PM 29.7206 -81.3428 149° Southeast 161 185 4,000  Level Jacksonville Center
Wed 11:11:09 PM 29.6867 -81.3100 140° Southeast 156 180 4,000  Level Jacksonville Center
Wed 11:12:10 PM 29.6531 -81.2794 142° Southeast 159 183 4,000  Level Jacksonville Center
Wed 11:13:10 PM 29.6169 -81.2467 142° Southeast 156 180 4,000  Level Jacksonville Center
Wed 11:14:11 PM 29.5789 -81.2114 141° Southeast 158 182 4,000  Level Jacksonville Center
Wed 11:15:12 PM 29.5472 -81.1808 140° Southeast 158 182 4,000  Level Jacksonville Center
Wed 11:16:06 PM 29.5178 -81.1553 143° Southeast 159 183 4,000  Level Jacksonville Center
Wed 11:17:07 PM 29.4817 -81.1225 142° Southeast 157 181 4,000  Level Jacksonville Center
Wed 11:18:08 PM 29.4478 -81.0872 138° Southeast 156 180 4,000 -149 Level Jacksonville Center
Wed 11:19:08 PM 29.4181 -81.0519 134° Southeast 159 183 3,700 -417 Descending Jacksonville Center
Wed 11:20:03 PM 29.3906 -81.0192 134° Southeast 159 183 3,200 -522 Descending Jacksonville Center
Wed 11:21:03 PM 29.3586 -80.9817 134° Southeast 164 189 2,700 -496 Descending Jacksonville Center
Wed 11:22:04 PM 29.3269 -80.9442 134° Southeast 161 185 2,200 -496 Descending Jacksonville Center
Wed 11:23:04 PM 29.2908 -80.9069 138° Southeast 171 197 1,700 -298 Descending Jacksonville Center
Wed 11:24:05 PM 29.2511 -80.9125 187° South 146 168 1,600 -98 Descending Jacksonville Center
Wed 11:25:06 PM 29.2267 -80.9414 226° Southwest 122 140 1,500 -50 Descending Jacksonville Center
Wed 11:26:06 PM 29.2167 -80.9703 248° West 91 105 1,500 -248 Level Jacksonville Center
Wed 11:27:07 PM 29.2044 -80.9989 244° Southwest 96 110 1,000 -492 Descending Jacksonville Center
Wed 11:28:08 PM 29.1925 -81.0300 246° West 99 114 500 -220 Descending Jacksonville Center
Wed 11:29:51 PM 29.1742 -81.0708 243° Southwest 95 109 400 407 Descending Jacksonville Center
Wed 11:32:04 PM 29.1397 -81.1428 241° Southwest 137 158 2,100 755 Climbing Jacksonville Center
Wed 11:32:22 PM 29.1336 -81.1547 240° Southwest 142 163 2,300 918 Climbing Jacksonville Center
Wed 11:33:29 PM 29.1092 -81.1886 230° Southwest 124 143 3,400 985 Climbing Jacksonville Center

Login

Don't have an account? Register now (free) for customized features, flight alerts, and more!